Weather in Sadovoye

Russia / Jewish Autonomous Oblast     47°45′48″N   131°26′41″E
temp.,
°C
wind,
m/s
gust,
m/s
humid.,
%
clouds,
%
prec.,
mm/h
press.,
hPa
HPBL,
m
29 january, sat
sat2901:00−22w37917 0.0 101583
04:00−20w41089100 0.0 1014165
07:00−21w3691100 0.0 101375
10:00−22wnw479562 0.0 101495
13:00−17nw712775 0.0 1013783
16:00−17nw611750 0.0 1014624
19:00−21nw411815 0.0 1015171
22:00−24wnw478850 0.0 101670
30 january, sun
sun3001:00−25wnw46935 0.0 101661
04:00−25wnw47955 0.0 101672
07:00−25wnw49945 0.0 1016107
10:00−25nw410895 0.0 1018172
13:00−18nw59791 0.0 1018484
16:00−16nw59795 0.0 1019552
19:00−19nw611801 0.0 1020228
22:00−20nw611815 0.0 1021242
31 january, mon
mon3101:00−21nw510885 0.0 1022237
04:00−24wnw38935 0.0 1023110
07:00−25wnw37945 0.0 1024105
10:00−22nw410925 0.0 1024202
13:00−16nw588256 0.0 1024496
16:00−13wnw610795 0.0 1023607
19:00−17wnw49854 0.0 1023124
22:00−19wnw512875 0.0 1023203
1 february, tue
tue101:00−20wnw513925 0.0 1022231
04:00−19wnw614875 0.0 1021292
07:00−20wnw514925 0.0 1021262
10:00−20wnw514945 0.0 1022297
13:00−14wnw612835 0.0 1021567
16:00−13nw610795 0.0 1021592
19:00−17nw410844 0.0 1022139
22:00−19wnw410885 0.0 1023138
2 february, wed
wed201:00−20wnw512915 0.0 1023189
04:00−21wnw512915 0.0 1023213
07:00−21wnw512915 0.0 1023198
10:00−21wnw512915 0.0 1024278
13:00−16wnw698255 0.0 1022580
16:00−14nw59795 0.0 1021655
19:00−18nw410855 0.0 1021148
22:00−20wnw411895 0.0 1021197